,,,PA_Meas_PMT16A,,PR_Meas_QMR101_102,,RH_Meas_QMH101,,SR_Meas_QMS101,,TA_Meas_QMH101,,GenWind,,GenWind,
date,time,status,PA,status,PR,status,RH,status,SR,status,TA,status,DirAvg,status,SpdAvg,
2011-02-13, 00:00:04,VALID,1000.17,VALID,0,VALID,93.6002,VALID,0,VALID,22.3178,VALID,128,VALID,2.14219,
2011-02-13, 00:01:04,VALID,1000.16,VALID,0,VALID,93.6154,VALID,0,VALID,22.3356,VALID,145,VALID,1.30195,
2011-02-13, 00:02:04,VALID,1000.11,VALID,0,VALID,93.6078,VALID,0,VALID,22.3763,VALID,142,VALID,1.45117,
2011-02-13, 00:03:04,VALID,1000.16,VALID,0,VALID,93.6154,VALID,0,VALID,22.3763,VALID,133,VALID,1.80234,
2011-02-13, 00:04:04,VALID,1000.16,VALID,0,VALID,93.6154,VALID,0,VALID,22.3958,VALID,140,VALID,1.07031,
2011-02-13, 00:05:04,VALID,1000.17,VALID,0,VALID,93.6078,VALID,0,VALID,22.3958,VALID,117,VALID,0.962891,
2011-02-13, 00:06:04,VALID,1000.13,VALID,0,VALID,93.6078,VALID,0,VALID,22.3746,VALID,133,VALID,1.44727,
2011-02-13, 00:07:04,VALID,1000.14,VALID,0,VALID,93.6078,VALID,0,VALID,22.3941,VALID,123,VALID,1.28906,
2011-02-13, 00:08:04,VALID,1000.13,VALID,0,VALID,93.6002,VALID,0,VALID,22.3958,VALID,125,VALID,1.46211,
2011-02-13, 00:09:04,VALID,1000.15,VALID,0,VALID,93.6078,VALID,0,VALID,22.3958,VALID,117,VALID,0.902734,
2011-02-13, 00:10:04,VALID,1000.15,VALID,0,VALID,93.6154,VALID,0,VALID,22.4153,VALID,130,VALID,0.730859,
2011-02-13, 00:11:04,VALID,1000.09,VALID,0,VALID,93.5926,VALID,0,VALID,22.3958,VALID,140,VALID,1.33125,
2011-02-13, 00:12:04,VALID,1000.06,VALID,0,VALID,93.6002,VALID,0,VALID,22.3958,VALID,123,VALID,1.7668,
2011-02-13, 00:13:04,VALID,1000.07,VALID,0.5,VALID,93.6231,VALID,0,VALID,22.4348,VALID,131,VALID,1.47344,
2011-02-13, 00:14:04,VALID,1000.04,VALID,0,VALID,93.6002,VALID,0,VALID,22.4153,VALID,131,VALID,1.40508,
2011-02-13, 00:15:04,VALID,1000.08,VALID,0,VALID,93.6078,VALID,0,VALID,22.4348,VALID,123,VALID,1.13789,
2011-02-13, 00:16:04,VALID,1000.01,VALID,0,VALID,93.6002,VALID,0,VALID,22.4136,VALID,109,VALID,1.26953,
2011-02-13, 00:17:04,VALID,1000.04,VALID,0,VALID,93.6078,VALID,0,VALID,22.4526,VALID,108,VALID,1.06445,
2011-02-13, 00:18:04,VALID,1000.02,VALID,0,VALID,93.6002,VALID,0,VALID,22.5128,VALID,117,VALID,0.619922,
2011-02-13, 00:19:04,VALID,999.975,VALID,0,VALID,93.6002,VALID,0,VALID,22.5323,VALID,118,VALID,1.01211,
2011-02-13, 00:20:04,VALID,999.966,VALID,0,VALID,93.5849,VALID,0,VALID,22.5323,VALID,114,VALID,0.969531,
2011-02-13, 00:21:04,VALID,999.91,VALID,0,VALID,93.6002,VALID,0,VALID,22.5714,VALID,117,VALID,1.42305,
2011-02-13, 00:22:04,VALID,999.926,VALID,0.5,VALID,93.5926,VALID,0,VALID,22.5501,VALID,133,VALID,1.08008,
2011-02-13, 00:23:04,VALID,999.877,VALID,0,VALID,93.6002,VALID,0,VALID,22.5714,VALID,128,VALID,1.05156,
2011-02-13, 00:24:04,VALID,999.853,VALID,0,VALID,93.5773,VALID,0,VALID,22.5501,VALID,119,VALID,1.21797,
2011-02-13, 00:25:04,VALID,999.833,VALID,0,VALID,93.5697,VALID,0,VALID,22.5714,VALID,143,VALID,1.30039,
2011-02-13, 00:26:04,VALID,999.801,VALID,0,VALID,93.5773,VALID,0,VALID,22.5714,VALID,130,VALID,1.22656,
2011-02-13, 00:27:04,VALID,999.777,VALID,0,VALID,93.6002,VALID,0,VALID,22.5519,VALID,144,VALID,1.38711,
2011-02-13, 00:28:04,VALID,999.749,VALID,0,VALID,93.6078,VALID,0,VALID,22.5306,VALID,141,VALID,1.20859,
2011-02-13, 00:29:04,VALID,999.697,VALID,0,VALID,93.6078,VALID,0,VALID,22.5306,VALID,153,VALID,1.17461,
2011-02-13, 00:30:04,VALID,999.675,VALID,0,VALID,93.6002,VALID,0,VALID,22.5696,VALID,136,VALID,1.10742,
2011-02-13, 00:31:04,VALID,999.683,VALID,0.5,VALID,93.5926,VALID,0,VALID,22.5501,VALID,128,VALID,1.45117,
2011-02-13, 00:32:04,VALID,999.68,VALID,0,VALID,93.6078,VALID,0,VALID,22.5714,VALID,127,VALID,1.46758,
2011-02-13, 00:33:04,VALID,999.697,VALID,0,VALID,93.6002,VALID,0,VALID,22.5519,VALID,124,VALID,0.987891,
2011-02-13, 00:34:04,VALID,999.641,VALID,0,VALID,93.6002,VALID,0,VALID,22.5501,VALID,128,VALID,1.15586,
2011-02-13, 00:35:04,VALID,999.623,VALID,0,VALID,93.5926,VALID,0,VALID,22.5714,VALID,114,VALID,1.27969,
2011-02-13, 00:36:04,VALID,999.57,VALID,0,VALID,93.5926,VALID,0,VALID,22.5696,VALID,125,VALID,1.16523,
2011-02-13, 00:37:04,VALID,999.608,VALID,0,VALID,93.5926,VALID,0,VALID,22.5909,VALID,120,VALID,0.857813,
2011-02-13, 00:38:04,VALID,999.575,VALID,0,VALID,93.5926,VALID,0,VALID,22.5909,VALID,138,VALID,1.0082,
2011-02-13, 00:39:04,VALID,999.527,VALID,0,VALID,93.5926,VALID,0,VALID,22.5501,VALID,136,VALID,1.29141,
2011-02-13, 00:40:04,VALID,999.519,VALID,0,VALID,93.5849,VALID,0,VALID,22.5714,VALID,138,VALID,1.09453,
2011-02-13, 00:41:04,VALID,999.52,VALID,0.5,VALID,93.6078,VALID,0,VALID,22.5519,VALID,132,VALID,1.13398,
2011-02-13, 00:42:04,VALID,999.481,VALID,0,VALID,93.6078,VALID,0,VALID,22.5714,VALID,121,VALID,1.51719,
2011-02-13, 00:43:04,VALID,999.491,VALID,0,VALID,93.6078,VALID,0,VALID,22.5714,VALID,129,VALID,1.46563,
2011-02-13, 00:44:04,VALID,999.47,VALID,0,VALID,93.6002,VALID,0,VALID,22.5714,VALID,126,VALID,1.47891,
2011-02-13, 00:45:04,VALID,999.46,VALID,0,VALID,93.6078,VALID,0,VALID,22.5714,VALID,124,VALID,1.30234,
2011-02-13, 00:46:04,VALID,999.461,VALID,0,VALID,93.6154,VALID,0,VALID,22.5696,VALID,134,VALID,1.24258,
2011-02-13, 00:47:04,VALID,999.437,VALID,0,VALID,93.6002,VALID,0,VALID,22.5909,VALID,130,VALID,1.4793,
2011-02-13, 00:48:04,VALID,999.424,VALID,0.5,VALID,93.5926,VALID,0,VALID,22.5909,VALID,114,VALID,1.4668,
2011-02-13, 00:49:04,VALID,999.443,VALID,0,VALID,93.6078,VALID,0,VALID,22.6104,VALID,124,VALID,1.67188,
2011-02-13, 00:50:04,VALID,999.425,VALID,0,VALID,93.6078,VALID,0,VALID,22.6299,VALID,119,VALID,1.74141,
2011-02-13, 00:51:04,VALID,999.402,VALID,0,VALID,93.5849,VALID,0,VALID,22.5696,VALID,113,VALID,1.8418,
2011-02-13, 00:52:04,VALID,999.416,VALID,0,VALID,93.5926,VALID,0,VALID,22.6299,VALID,119,VALID,1.74336,
2011-02-13, 00:53:04,VALID,999.423,VALID,0,VALID,93.6078,VALID,0,VALID,22.6104,VALID,114,VALID,1.21367,
2011-02-13, 00:54:04,VALID,999.37,VALID,0,VALID,93.6078,VALID,0,VALID,22.6087,VALID,118,VALID,1.67891,
2011-02-13, 00:55:04,VALID,999.397,VALID,0,VALID,93.6002,VALID,0,VALID,22.6104,VALID,113,VALID,1.39961,
2011-02-13, 00:56:04,VALID,999.352,VALID,0,VALID,93.6231,VALID,0,VALID,22.5892,VALID,114,VALID,1.90391,
2011-02-13, 00:57:04,VALID,999.332,VALID,0.5,VALID,93.6078,VALID,0,VALID,22.5892,VALID,120,VALID,1.6957,
2011-02-13, 00:58:04,VALID,999.317,VALID,0,VALID,93.6078,VALID,0,VALID,22.6104,VALID,117,VALID,1.19102,
2011-02-13, 00:59:04,VALID,999.282,VALID,0,VALID,93.6231,VALID,0,VALID,22.6087,VALID,114,VALID,1.39531,
2011-02-13, 01:00:04,VALID,999.285,VALID,0,VALID,93.6002,VALID,0,VALID,22.6104,VALID,122,VALID,1.2832,
2011-02-13, 01:01:04,VALID,999.226,VALID,0,VALID,93.5926,VALID,0,VALID,22.6104,VALID,136,VALID,1.77266,
2011-02-13, 01:02:04,VALID,999.213,VALID,0,VALID,93.6231,VALID,0,VALID,22.5909,VALID,133,VALID,1.23906,
2011-02-13, 01:03:04,VALID,999.208,VALID,0,VALID,93.6078,VALID,0,VALID,22.6104,VALID,133,VALID,1.15859,
2011-02-13, 01:04:04,VALID,999.206,VALID,0,VALID,93.6154,VALID,0,VALID,22.5696,VALID,129,VALID,2.31484,
2011-02-13, 01:05:04,VALID,999.195,VALID,0,VALID,93.6231,VALID,0,VALID,22.5306,VALID,138,VALID,2.09922,
2011-02-13, 01:06:04,VALID,999.239,VALID,0,VALID,93.6154,VALID,0,VALID,22.5714,VALID,134,VALID,1.75352,
2011-02-13, 01:07:04,VALID,999.223,VALID,0,VALID,93.6078,VALID,0,VALID,22.5519,VALID,136,VALID,1.87617,
2011-02-13, 01:08:04,VALID,999.243,VALID,0,VALID,93.6078,VALID,0,VALID,22.5323,VALID,137,VALID,1.76875,
2011-02-13, 01:09:04,VALID,999.257,VALID,0,VALID,93.6231,VALID,0,VALID,22.5323,VALID,133,VALID,1.42344,
2011-02-13, 01:10:04,VALID,999.258,VALID,0,VALID,93.6231,VALID,0,VALID,22.5111,VALID,136,VALID,1.29062,
2011-02-13, 01:11:04,VALID,999.283,VALID,0,VALID,93.6231,VALID,0,VALID,22.5111,VALID,125,VALID,1.34961,
2011-02-13, 01:12:04,VALID,999.291,VALID,0,VALID,93.6154,VALID,0,VALID,22.5128,VALID,136,VALID,1.57695,
2011-02-13, 01:13:04,VALID,999.318,VALID,0,VALID,93.6307,VALID,0,VALID,22.5128,VALID,128,VALID,1.35625,
2011-02-13, 01:14:04,VALID,999.288,VALID,0,VALID,93.6383,VALID,0,VALID,22.4933,VALID,124,VALID,0.916406,
2011-02-13, 01:15:04,VALID,999.346,VALID,0.5,VALID,93.6307,VALID,0,VALID,22.4916,VALID,137,VALID,0.698438,
2011-02-13, 01:16:04,VALID,999.322,VALID,0,VALID,93.6307,VALID,0,VALID,22.4933,VALID,133,VALID,0.941016,
2011-02-13, 01:17:04,VALID,999.289,VALID,0,VALID,93.6307,VALID,0,VALID,22.4721,VALID,145,VALID,0.914844,
2011-02-13, 01:18:04,VALID,999.302,VALID,0,VALID,93.6383,VALID,0,VALID,22.4721,VALID,151,VALID,0.754687,
2011-02-13, 01:19:04,VALID,999.289,VALID,0,VALID,93.6154,VALID,0,VALID,22.4526,VALID,146,VALID,0.841406,
2011-02-13, 01:20:04,VALID,999.281,VALID,0,VALID,93.6383,VALID,0,VALID,22.5128,VALID,148,VALID,0.919141,
2011-02-13, 01:21:04,VALID,999.298,VALID,0,VALID,93.6231,VALID,0,VALID,22.5111,VALID,150,VALID,0.933984,
2011-02-13, 01:22:04,VALID,999.294,VALID,0,VALID,93.6078,VALID,0,VALID,22.5306,VALID,152,VALID,1.12227,
2011-02-13, 01:23:04,VALID,999.277,VALID,0.5,VALID,93.6307,VALID,0,VALID,22.5323,VALID,146,VALID,1.15469,
2011-02-13, 01:24:04,VALID,999.263,VALID,0,VALID,93.6307,VALID,0,VALID,22.5323,VALID,146,VALID,0.908594,
2011-02-13, 01:25:04,VALID,999.295,VALID,0,VALID,93.6383,VALID,0,VALID,22.5519,VALID,146,VALID,0.873047,
2011-02-13, 01:26:04,VALID,999.291,VALID,0,VALID,93.6231,VALID,0,VALID,22.5306,VALID,139,VALID,1.07969,
2011-02-13, 01:27:04,VALID,999.288,VALID,0,VALID,93.6154,VALID,0,VALID,22.5306,VALID,134,VALID,1.40469,
2011-02-13, 01:28:04,VALID,999.285,VALID,0,VALID,93.6307,VALID,0,VALID,22.5323,VALID,114,VALID,1.16641,
2011-02-13, 01:29:04,VALID,999.276,VALID,0,VALID,93.6307,VALID,0,VALID,22.5323,VALID,127,VALID,1.31055,
2011-02-13, 01:30:04,VALID,999.268,VALID,0,VALID,93.6231,VALID,0,VALID,22.5323,VALID,120,VALID,1.16289,
2011-02-13, 01:31:04,VALID,999.276,VALID,0,VALID,93.6154,VALID,0,VALID,22.5714,VALID,103,VALID,0.911328,
2011-02-13, 01:32:04,VALID,999.272,VALID,0,VALID,93.6307,VALID,0,VALID,22.5714,VALID,101,VALID,1.47773,
2011-02-13, 01:33:04,VALID,999.278,VALID,0,VALID,93.6231,VALID,0,VALID,22.5731,VALID,93,VALID,1.86289,
2011-02-13, 01:34:04,VALID,999.281,VALID,0.5,VALID,93.6154,VALID,0,VALID,22.5536,VALID,91,VALID,1.57422,
2011-02-13, 01:35:04,VALID,999.235,VALID,0,VALID,93.6383,VALID,0,VALID,22.5341,VALID,94,VALID,1.85547,
2011-02-13, 01:36:04,VALID,999.228,VALID,0,VALID,93.6231,VALID,0,VALID,22.5323,VALID,89,VALID,1.46719,
2011-02-13, 01:37:04,VALID,999.224,VALID,0,VALID,93.6383,VALID,0,VALID,22.5128,VALID,99,VALID,1.20195,
2011-02-13, 01:38:04,VALID,999.198,VALID,0,VALID,93.6383,VALID,0,VALID,22.5128,VALID,92,VALID,1.13242,
2011-02-13, 01:39:04,VALID,999.19,VALID,0,VALID,93.6231,VALID,0,VALID,22.5128,VALID,93,VALID,1.08164,
2011-02-13, 01:40:04,VALID,999.206,VALID,0,VALID,93.6231,VALID,0,VALID,22.5128,VALID,92,VALID,0.933594,
2011-02-13, 01:41:04,VALID,999.174,VALID,0,VALID,93.6307,VALID,0,VALID,22.5519,VALID,98,VALID,0.816016,
2011-02-13, 01:42:04,VALID,999.157,VALID,0,VALID,93.6307,VALID,0,VALID,22.5323,VALID,82,VALID,1.05234,
2011-02-13, 01:43:04,VALID,999.17,VALID,0,VALID,93.646,VALID,0,VALID,22.5323,VALID,79,VALID,0.894141,
2011-02-13, 01:44:04,VALID,999.145,VALID,0,VALID,93.6536,VALID,0,VALID,22.5519,VALID,87,VALID,0.844531,
2011-02-13, 01:45:04,VALID,999.124,VALID,0,VALID,93.6231,VALID,0,VALID,22.5323,VALID,89,VALID,1.10039,
2011-02-13, 01:46:04,VALID,999.108,VALID,0,VALID,93.6154,VALID,0,VALID,22.5323,VALID,74,VALID,0.687891,
2011-02-13, 01:47:04,VALID,999.096,VALID,0,VALID,93.6231,VALID,0,VALID,22.5128,VALID,79,VALID,0.755859,
2011-02-13, 01:48:04,VALID,999.081,VALID,0,VALID,93.6307,VALID,0,VALID,22.4933,VALID,91,VALID,0.907812,
2011-02-13, 01:49:04,VALID,999.063,VALID,0.5,VALID,93.6307,VALID,0,VALID,22.4933,VALID,93,VALID,0.661328,
2011-02-13, 01:50:04,VALID,999.029,VALID,0,VALID,93.6383,VALID,0,VALID,22.5128,VALID,99,VALID,0.958594,
2011-02-13, 01:51:04,VALID,999.023,VALID,0,VALID,93.646,VALID,0,VALID,22.4738,VALID,99,VALID,0.508203,
2011-02-13, 01:52:04,VALID,999.005,VALID,0,VALID,93.6154,VALID,0,VALID,22.4933,VALID,99,VALID,0.269922,
2011-02-13, 01:53:04,VALID,998.99,VALID,0,VALID,93.6154,VALID,0,VALID,22.4933,VALID,99,VALID,0.0359375,
2011-02-13, 01:54:04,VALID,998.99,VALID,0.5,VALID,93.6383,VALID,0,VALID,22.4933,VALID,99,VALID,0,
2011-02-13, 01:55:04,VALID,998.939,VALID,0,VALID,93.6536,VALID,0,VALID,22.4933,VALID,99,VALID,0,
2011-02-13, 01:56:04,VALID,998.938,VALID,0,VALID,93.6612,VALID,0,VALID,22.4933,VALID,99,VALID,0.00429688,
2011-02-13, 01:57:04,VALID,998.888,VALID,0,VALID,93.6612,VALID,0,VALID,22.4933,VALID,99,VALID,0,
2011-02-13, 01:58:04,VALID,998.886,VALID,0.5,VALID,93.646,VALID,0,VALID,22.5128,VALID,99,VALID,0.00078125,
2011-02-13, 01:59:04,VALID,998.847,VALID,0,VALID,93.6231,VALID,0,VALID,22.5128,VALID,99,VALID,0.290625,
2011-02-13, 02:00:04,VALID,998.798,VALID,0,VALID,93.646,VALID,0,VALID,22.4916,VALID,99,VALID,0.257031,
2011-02-13, 02:01:04,VALID,998.782,VALID,0,VALID,93.6383,VALID,0,VALID,22.4721,VALID,133,VALID,0.8,
2011-02-13, 02:02:04,VALID,998.742,VALID,0.5,VALID,93.646,VALID,0,VALID,22.4933,VALID,144,VALID,0.966016,
2011-02-13, 02:03:04,VALID,998.729,VALID,0,VALID,93.646,VALID,0,VALID,22.5128,VALID,154,VALID,0.916797,
2011-02-13, 02:04:04,VALID,998.714,VALID,0,VALID,93.6307,VALID,0,VALID,22.5306,VALID,145,VALID,1.17578,
2011-02-13, 02:05:04,VALID,998.704,VALID,0,VALID,93.6383,VALID,0,VALID,22.5519,VALID,150,VALID,1.3375,
2011-02-13, 02:06:04,VALID,998.696,VALID,0.5,VALID,93.6536,VALID,0,VALID,22.5519,VALID,147,VALID,1.23789,
2011-02-13, 02:07:04,VALID,998.705,VALID,0,VALID,93.6307,VALID,0,VALID,22.5714,VALID,147,VALID,0.888672,
2011-02-13, 02:08:04,VALID,998.678,VALID,0,VALID,93.6307,VALID,0,VALID,22.5714,VALID,150,VALID,1.00898,
2011-02-13, 02:09:04,VALID,998.666,VALID,0,VALID,93.6307,VALID,0,VALID,22.5714,VALID,149,VALID,1.00195,
2011-02-13, 02:10:04,VALID,998.63,VALID,0,VALID,93.6154,VALID,0,VALID,22.5909,VALID,151,VALID,0.935547,
2011-02-13, 02:11:04,VALID,998.651,VALID,0.5,VALID,93.6307,VALID,0,VALID,22.6299,VALID,162,VALID,1.13398,
2011-02-13, 02:12:04,VALID,998.632,VALID,0,VALID,93.6307,VALID,0,VALID,22.6494,VALID,162,VALID,0.832422,
2011-02-13, 02:13:04,VALID,998.622,VALID,0,VALID,93.6002,VALID,0,VALID,22.6884,VALID,162,VALID,0.778516,
2011-02-13, 02:14:04,VALID,998.595,VALID,0,VALID,93.6307,VALID,0,VALID,22.6689,VALID,155,VALID,1.16367,
2011-02-13, 02:15:04,VALID,998.591,VALID,0,VALID,93.6078,VALID,0,VALID,22.6706,VALID,149,VALID,1.16484,
2011-02-13, 02:16:04,VALID,998.593,VALID,0,VALID,93.6231,VALID,0,VALID,22.6104,VALID,159,VALID,1.30508,
2011-02-13, 02:17:04,VALID,998.573,VALID,0,VALID,93.6307,VALID,0,VALID,22.6299,VALID,168,VALID,1.24258,
2011-02-13, 02:18:04,VALID,998.533,VALID,0,VALID,93.6307,VALID,0,VALID,22.6299,VALID,150,VALID,0.854297,
2011-02-13, 02:19:04,VALID,998.553,VALID,0,VALID,93.6154,VALID,0,VALID,22.6511,VALID,151,VALID,0.703906,
2011-02-13, 02:20:04,VALID,998.58,VALID,0.5,VALID,93.6307,VALID,0,VALID,22.6494,VALID,148,VALID,0.676172,
2011-02-13, 02:21:04,VALID,998.575,VALID,0,VALID,93.6307,VALID,0,VALID,22.6299,VALID,123,VALID,0.717188,
2011-02-13, 02:22:04,VALID,998.612,VALID,0,VALID,93.6307,VALID,0,VALID,22.5909,VALID,127,VALID,0.876953,
2011-02-13, 02:23:04,VALID,998.616,VALID,0,VALID,93.6383,VALID,0,VALID,22.5696,VALID,114,VALID,0.684375,
2011-02-13, 02:24:04,VALID,998.629,VALID,0,VALID,93.6383,VALID,0,VALID,22.5909,VALID,104,VALID,1.23438,
2011-02-13, 02:25:04,VALID,998.61,VALID,0,VALID,93.6307,VALID,0,VALID,22.5714,VALID,85,VALID,0.986719,
2011-02-13, 02:26:04,VALID,998.569,VALID,0,VALID,93.6307,VALID,0,VALID,22.5714,VALID,108,VALID,1.10391,
2011-02-13, 02:27:04,VALID,998.622,VALID,0,VALID,93.6307,VALID,0,VALID,22.6104,VALID,93,VALID,1.18359,
2011-02-13, 02:28:04,VALID,998.562,VALID,0,VALID,93.6383,VALID,0,VALID,22.6087,VALID,82,VALID,1.14805,
2011-02-13, 02:29:04,VALID,998.566,VALID,0,VALID,93.6231,VALID,0,VALID,22.6087,VALID,84,VALID,0.701172,
2011-02-13, 02:30:04,VALID,998.539,VALID,0,VALID,93.646,VALID,0,VALID,22.6087,VALID,89,VALID,0.699609,
2011-02-13, 02:31:04,VALID,998.512,VALID,0.5,VALID,93.6383,VALID,0,VALID,22.6087,VALID,106,VALID,0.567969,
2011-02-13, 02:32:04,VALID,998.51,VALID,0,VALID,93.6536,VALID,0,VALID,22.6087,VALID,111,VALID,0.430078,
2011-02-13, 02:33:04,VALID,998.507,VALID,0,VALID,93.6536,VALID,0.112286,VALID,22.5892,VALID,111,VALID,0.660547,
2011-02-13, 02:34:04,VALID,998.482,VALID,0,VALID,93.646,VALID,0,VALID,22.5696,VALID,111,VALID,0.404297,
2011-02-13, 02:35:04,VALID,998.512,VALID,0,VALID,93.646,VALID,0,VALID,22.5696,VALID,111,VALID,0.263672,
2011-02-13, 02:36:04,VALID,998.515,VALID,0,VALID,93.6231,VALID,0,VALID,22.5501,VALID,111,VALID,0.653125,
2011-02-13, 02:37:04,VALID,998.483,VALID,0,VALID,93.646,VALID,0,VALID,22.5501,VALID,111,VALID,0.378906,
2011-02-13, 02:38:04,VALID,998.453,VALID,0,VALID,93.6612,VALID,0,VALID,22.5501,VALID,122,VALID,0.958984,
2011-02-13, 02:39:04,VALID,998.403,VALID,0,VALID,93.6765,VALID,0,VALID,22.5306,VALID,135,VALID,0.763281,
2011-02-13, 02:40:04,VALID,998.358,VALID,0,VALID,93.6536,VALID,0,VALID,22.5519,VALID,141,VALID,0.596875,
2011-02-13, 02:41:04,VALID,998.35,VALID,0,VALID,93.646,VALID,0,VALID,22.5111,VALID,141,VALID,0.732031,
2011-02-13, 02:42:04,VALID,998.32,VALID,0,VALID,93.6536,VALID,0,VALID,22.5306,VALID,149,VALID,0.820313,
2011-02-13, 02:43:04,VALID,998.273,VALID,0,VALID,93.646,VALID,0,VALID,22.5696,VALID,163,VALID,0.931641,
2011-02-13, 02:44:04,VALID,998.268,VALID,0,VALID,93.646,VALID,0,VALID,22.5696,VALID,174,VALID,0.937109,
2011-02-13, 02:45:04,VALID,998.214,VALID,0,VALID,93.6612,VALID,0,VALID,22.5909,VALID,187,VALID,0.790234,
2011-02-13, 02:46:04,VALID,998.192,VALID,0,VALID,93.6536,VALID,0,VALID,22.5696,VALID,187,VALID,0.908203,
2011-02-13, 02:47:04,VALID,998.138,VALID,0,VALID,93.646,VALID,0,VALID,22.5696,VALID,199,VALID,1.04727,
2011-02-13, 02:48:04,VALID,998.172,VALID,0,VALID,93.6383,VALID,0,VALID,22.6299,VALID,209,VALID,1.21055,
2011-02-13, 02:49:04,VALID,998.132,VALID,0,VALID,93.6536,VALID,0,VALID,22.5892,VALID,207,VALID,1.13008,
2011-02-13, 02:50:04,VALID,998.124,VALID,0,VALID,93.646,VALID,0,VALID,22.6299,VALID,201,VALID,1.07969,
2011-02-13, 02:51:04,VALID,998.095,VALID,0,VALID,93.646,VALID,0,VALID,22.6282,VALID,197,VALID,1.22969,
2011-02-13, 02:52:04,VALID,998.051,VALID,0,VALID,93.646,VALID,0,VALID,22.6282,VALID,196,VALID,1.19414,
2011-02-13, 02:53:04,VALID,998.048,VALID,0,VALID,93.646,VALID,0,VALID,22.6087,VALID,200,VALID,1.27148,
2011-02-13, 02:54:04,VALID,997.99,VALID,0,VALID,93.6383,VALID,0,VALID,22.6282,VALID,196,VALID,1.55898,
2011-02-13, 02:55:04,VALID,997.996,VALID,0,VALID,93.6383,VALID,0,VALID,22.6282,VALID,194,VALID,1.67578,
2011-02-13, 02:56:04,VALID,997.983,VALID,0,VALID,93.646,VALID,0,VALID,22.6282,VALID,199,VALID,1.32461,
2011-02-13, 02:57:04,VALID,998.014,VALID,0,VALID,93.6612,VALID,0,VALID,22.6282,VALID,200,VALID,1.2,
2011-02-13, 02:58:04,VALID,998.009,VALID,0,VALID,93.646,VALID,0,VALID,22.6282,VALID,197,VALID,1.35312,
2011-02-13, 02:59:04,VALID,997.994,VALID,0,VALID,93.646,VALID,0,VALID,22.6689,VALID,210,VALID,0.833594,
2011-02-13, 03:00:04,VALID,997.99,VALID,0,VALID,93.646,VALID,0,VALID,22.6282,VALID,210,VALID,0.471875,
2011-02-13, 03:01:04,VALID,998,VALID,0,VALID,93.6231,VALID,0,VALID,22.6477,VALID,195,VALID,0.547656,
2011-02-13, 03:02:04,VALID,997.973,VALID,0,VALID,93.646,VALID,0,VALID,22.6282,VALID,187,VALID,0.627344,
2011-02-13, 03:03:04,VALID,997.936,VALID,0,VALID,93.6612,VALID,0,VALID,22.6689,VALID,187,VALID,0.300781,
2011-02-13, 03:04:04,VALID,997.98,VALID,0,VALID,93.6383,VALID,0,VALID,22.6689,VALID,187,VALID,0.344922,
2011-02-13, 03:05:04,VALID,997.971,VALID,0,VALID,93.6231,VALID,0,VALID,22.6689,VALID,187,VALID,0.0492188,
2011-02-13, 03:06:04,VALID,997.981,VALID,0,VALID,93.646,VALID,0,VALID,22.6672,VALID,187,VALID,0.0773437,
2011-02-13, 03:07:04,VALID,997.969,VALID,0,VALID,93.6383,VALID,0,VALID,22.6672,VALID,187,VALID,0.139844,
2011-02-13, 03:08:04,VALID,997.94,VALID,0,VALID,93.6536,VALID,0,VALID,22.6672,VALID,187,VALID,0.00351562,
2011-02-13, 03:09:04,VALID,997.969,VALID,0,VALID,93.6307,VALID,0,VALID,22.6672,VALID,187,VALID,0,
2011-02-13, 03:10:04,VALID,997.948,VALID,0,VALID,93.646,VALID,0,VALID,22.6689,VALID,269,VALID,0.610937,
2011-02-13, 03:11:04,VALID,997.933,VALID,0,VALID,93.6307,VALID,0,VALID,22.6494,VALID,269,VALID,0.654297,
2011-02-13, 03:12:04,VALID,997.916,VALID,0,VALID,93.6383,VALID,0,VALID,22.6282,VALID,269,VALID,0.523828,
2011-02-13, 03:13:04,VALID,997.895,VALID,0,VALID,93.6536,VALID,0,VALID,22.6087,VALID,269,VALID,0.386719,
2011-02-13, 03:14:04,VALID,997.865,VALID,0,VALID,93.6383,VALID,0,VALID,22.6299,VALID,269,VALID,0.355078,
2011-02-13, 03:15:04,VALID,997.861,VALID,0,VALID,93.6612,VALID,0,VALID,22.6087,VALID,269,VALID,0.368359,
2011-02-13, 03:16:04,VALID,997.844,VALID,0,VALID,93.6383,VALID,0,VALID,22.6282,VALID,269,VALID,0.351953,
2011-02-13, 03:17:04,VALID,997.799,VALID,0,VALID,93.646,VALID,0,VALID,22.6494,VALID,269,VALID,0.34375,
2011-02-13, 03:18:04,VALID,997.799,VALID,0,VALID,93.6536,VALID,0,VALID,22.6494,VALID,269,VALID,0.163672,
2011-02-13, 03:19:04,VALID,997.803,VALID,0,VALID,93.6536,VALID,0,VALID,22.6282,VALID,269,VALID,0,
2011-02-13, 03:20:04,VALID,997.811,VALID,0,VALID,93.6536,VALID,0,VALID,22.6087,VALID,269,VALID,0,
2011-02-13, 03:21:04,VALID,997.812,VALID,0,VALID,93.6536,VALID,0,VALID,22.6087,VALID,269,VALID,0,
2011-02-13, 03:22:04,VALID,997.81,VALID,0,VALID,93.6688,VALID,0,VALID,22.6087,VALID,269,VALID,0,
2011-02-13, 03:23:04,VALID,997.837,VALID,0,VALID,93.6536,VALID,0,VALID,22.6282,VALID,269,VALID,0,
2011-02-13, 03:24:04,VALID,997.863,VALID,0,VALID,93.6383,VALID,0,VALID,22.6282,VALID,269,VALID,0,
2011-02-13, 03:25:04,VALID,997.9,VALID,0.5,VALID,93.6536,VALID,0,VALID,22.6282,VALID,269,VALID,0,
2011-02-13, 03:26:04,VALID,997.91,VALID,0,VALID,93.646,VALID,0,VALID,22.6282,VALID,269,VALID,0,
2011-02-13, 03:27:04,VALID,997.943,VALID,0,VALID,93.6612,VALID,0,VALID,22.6282,VALID,42,VALID,0.69375,
2011-02-13, 03:28:04,VALID,997.952,VALID,0,VALID,93.6612,VALID,0,VALID,22.6282,VALID,42,VALID,0.378125,
2011-02-13, 03:29:04,VALID,997.962,VALID,0,VALID,93.646,VALID,0,VALID,22.6282,VALID,43,VALID,0.540234,
2011-02-13, 03:30:04,VALID,997.995,VALID,0,VALID,93.646,VALID,0,VALID,22.6689,VALID,43,VALID,0.542188,
2011-02-13, 03:31:04,VALID,998.007,VALID,0,VALID,93.646,VALID,0,VALID,22.6672,VALID,43,VALID,0.416406,
2011-02-13, 03:32:04,VALID,998.013,VALID,0,VALID,93.6383,VALID,0,VALID,22.6884,VALID,43,VALID,0.0621094,
2011-02-13, 03:33:04,VALID,997.996,VALID,0,VALID,93.6536,VALID,0,VALID,22.6884,VALID,43,VALID,0.330469,
2011-02-13, 03:34:04,VALID,997.972,VALID,0,VALID,93.6536,VALID,0,VALID,22.6867,VALID,43,VALID,0.325781,
2011-02-13, 03:35:04,VALID,997.923,VALID,0,VALID,93.646,VALID,0,VALID,22.6867,VALID,43,VALID,0.385938,
2011-02-13, 03:36:04,VALID,997.927,VALID,0,VALID,93.6536,VALID,0,VALID,22.7079,VALID,43,VALID,0.463672,
2011-02-13, 03:37:04,VALID,997.904,VALID,0,VALID,93.6231,VALID,0,VALID,22.7274,VALID,43,VALID,0.60625,
2011-02-13, 03:38:04,VALID,997.882,VALID,0,VALID,93.6536,VALID,0,VALID,22.7274,VALID,43,VALID,0.522656,
2011-02-13, 03:39:04,VALID,997.878,VALID,0,VALID,93.646,VALID,0,VALID,22.7062,VALID,43,VALID,0.550391,
2011-02-13, 03:40:04,VALID,997.825,VALID,0,VALID,93.646,VALID,0,VALID,22.7079,VALID,43,VALID,0.321875,
2011-02-13, 03:41:04,VALID,997.793,VALID,0,VALID,93.6307,VALID,0,VALID,22.7079,VALID,43,VALID,0.0132813,
2011-02-13, 03:42:04,VALID,997.779,VALID,0,VALID,93.646,VALID,0,VALID,22.7274,VALID,43,VALID,0,
2011-02-13, 03:43:04,VALID,997.754,VALID,0,VALID,93.646,VALID,0,VALID,22.7079,VALID,43,VALID,0,
2011-02-13, 03:44:04,VALID,997.74,VALID,0,VALID,93.6307,VALID,0,VALID,22.7274,VALID,43,VALID,0.00703125,
2011-02-13, 03:45:04,VALID,997.753,VALID,0,VALID,93.6231,VALID,0,VALID,22.7062,VALID,43,VALID,0.281641,
2011-02-13, 03:46:04,VALID,997.741,VALID,0,VALID,93.6307,VALID,0,VALID,22.7274,VALID,43,VALID,0.303125,